Location: Kitchener
(43.2612°N, 80.5078°W)
Time: 02:44:57
(UTC+01:00)

ISS - Visible Passes

Search period start: 16 December 2017 00:00
Search period end: 26 December 2017 00:00
Orbit: 402 x 406 km, 51.6° (Epoch: 16 December)

Date Brightness Start Highest point End Pass type
(mag) Time Alt. Az. Time Alt. Az. Time Alt. Az.
16 Dec -2.8 00:07:28 10° WNW 00:10:38 47° SW 00:13:48 10° SE visible
17 Dec -0.5 00:53:20 10° WSW 00:54:27 11° SW 00:55:33 10° SSW visible
17 Dec -1.0 23:59:53 10° W 00:02:25 21° SW 00:04:57 10° S visible
24 Dec -0.3 13:04:09 10° SSE 13:05:44 13° SE 13:07:19 10° ESE visible
